Location: Bourg-d�Oueil
(42.8588°N, 0.4991°E)
Time: 16:30:52
(UTC+00:00)

Cosmos 1844 - Pass Details

Date: 16 June 2021
Orbit: 823 x 867 km, 70.9° (Epoch: 04 August)

Event Time Altitude Azimuth Distance (km) Brightness Sun altitude
Rises 21:19:32 0° 339° (NNW) 3,369 8.4 -14.3°
Reaches altitude 10° 21:22:03 10° 345° (NNW) 2,434 7.2 -14.6°
Maximum altitude 21:27:28 50° 60° (ENE) 1,054 4.1 -15.2°
Enters shadow 21:30:50 22° 126° (SE) 1,732 4.8 -15.5°
